Location: Tamazert
(32.6352°N, 5.2072°W)
Time: 08:10:51
(UTC+00:00)

Tiros 1 despin weight - Pass Details

Date: 14 October 2022
Orbit: 590 x 637 km, 48.2° (Epoch: 28 November)

Event Time Altitude Azimuth Distance (km) Brightness Sun altitude
Rises 12:52:34 0° 276° (W) 2,812 ? 47.7°
Reaches altitude 10° 12:55:29 10° 296° (WNW) 1,916 ? 47.5°
Maximum altitude 12:58:28 18° 339° (NNW) 1,486 ? 47.3°
Drops below altitude 10° 13:01:30 10° 22° (NNE) 1,931 ? 47.1°
Sets 13:04:27 0° 42° (NE) 2,843 ? 46.9°
